FW9594 Weather Reports


Display with metric or nautical units.
time (UTC)temp
F
wind
direction
speed
MPH
gust
MPH
rain 1hr
in
rain 24hr
in
rain mn
in
humidity
%
barometer
mb
20260503001541 76 265 2.0 5.0 0.00 0.00 0.00 39 1017.7
20260503000540 76 276 1.0 4.0 0.00 0.00 0.00 41 1017.8
20260502235539 77 288 2.0 4.0 0.00 0.00 0.00 39 1017.8
20260502234101 77 264 2.0 7.0 0.00 0.00 0.00 39 1017.8
20260502233102 77 285 1.0 5.0 0.00 0.00 0.00 42 1017.9
20260502232101 76 298 1.0 4.0 0.00 0.00 0.00 40 1017.9
20260502231101 76 0 3.0 9.0 0.00 0.00 0.00 39 1018.0
20260502230101 78 274 3.0 7.0 0.00 0.00 0.00 39 1018.0
20260502225101 77 269 3.0 4.0 0.00 0.00 0.00 41 1018.0
20260502224100 76 61 1.0 4.0 0.00 0.00 0.00 40 1018.1
20260502223102 75 309 2.0 9.0 0.00 0.00 0.00 40 1018.1
20260502222101 76 261 2.0 7.0 0.00 0.00 0.00 40 1018.2
20260502221101 78 118 0.0 3.0 0.00 0.00 0.00 40 1018.2
20260502215101 77 288 2.0 6.0 0.00 0.00 0.00 36 1018.4
20260502214101 77 28 1.0 7.0 0.00 0.00 0.00 39 1018.5
20260502213101 77 309 4.0 7.0 0.00 0.00 0.00 37 1018.7
20260502212101 77 288 3.0 6.0 0.00 0.00 0.00 38 1018.7
20260502211101 77 292 2.0 6.0 0.00 0.00 0.00 36 1018.8
20260502210541 77 299 3.0 10.0 0.00 0.00 0.00 38 1019.0
20260502205101 77 265 1.0 4.0 0.00 0.00 0.00 35 1019.1
20260502204101 76 261 1.0 9.0 0.00 0.00 0.00 36 1019.3
20260502203101 75 6 5.0 9.0 0.00 0.00 0.00 35 1019.3
20260502202101 76 272 2.0 5.0 0.00 0.00 0.00 35 1019.4
20260502201101 75 161 3.0 9.0 0.00 0.00 0.00 35 1019.6
20260502200532 75 185 4.0 7.0 0.00 0.00 0.00 37 1019.6
20260502195054 75 355 2.0 7.0 0.00 0.00 0.00 37 1019.7
20260502194048 75 28 2.0 6.0 0.00 0.00 0.00 35 1019.8
20260502193525 75 300 4.0 10.0 0.00 0.00 0.00 38 1019.9
20260502192515 75 264 1.0 6.0 0.00 0.00 0.00 41 1020.0
20260502191034 75 31 2.0 5.0 0.00 0.00 0.00 39 1020.1
20260502190031 74 25 2.0 9.0 0.00 0.00 0.00 40 1020.2
20260502185516 74 7 2.0 7.0 0.00 0.00 0.00 37 1020.5
20260502184029 74 78 1.0 6.0 0.00 0.00 0.00 37 1020.6
20260502183030 73 106 2.0 10.0 0.00 0.00 0.00 36 1020.8
20260502182029 73 41 5.0 10.0 0.00 0.00 0.00 36 1020.8
20260502181957 73 76 3.0 9.0 0.00 0.00 0.00 40 1020.9
20260502164024 70 51 1.0 7.0 0.00 0.00 0.00 42 1021.8
20260502163023 69 275 3.0 6.0 0.00 0.00 0.00 42 1021.7
20260502162505 68 255 2.0 7.0 0.00 0.00 0.00 42 1021.7
20260502161021 67 23 2.0 6.0 0.00 0.00 0.00 42 1021.7
20260502151013 64 27 3.0 5.0 0.00 0.00 0.00 53 1021.5
20260502123010 50 269 0.0 0.0 0.00 0.00 0.00 92 1020.2
20260502122009 49 269 0.0 0.0 0.00 0.00 0.00 92 1020.0
20260502121005 48 269 0.0 0.0 0.00 0.00 0.00 91 1019.7
20260502115003 48 269 0.0 0.0 0.00 0.00 0.00 91 1019.4
20260502114002 49 269 0.0 0.0 0.00 0.00 0.00 90 1019.4
20260502113000 49 269 0.0 0.0 0.00 0.00 0.00 90 1019.3
20260502112438 49 269 0.0 0.0 0.00 0.00 0.00 89 1019.1
20260502111001 50 269 0.0 0.0 0.00 0.00 0.00 89 1018.9
20260502110001 50 269 0.0 0.0 0.00 0.00 0.00 89 1018.8
20260502105002 50 269 0.0 1.0 0.00 0.00 0.00 88 1018.7
20260502104002 51 269 0.0 1.0 0.00 0.00 0.00 87 1018.7
20260502103001 51 269 1.0 3.0 0.00 0.00 0.00 88 1018.8
20260502102001 51 264 1.0 2.0 0.00 0.00 0.00 87 1018.6
20260502101445 51 259 0.0 1.0 0.00 0.00 0.00 87 1018.5
20260502100441 51 265 0.0 0.0 0.00 0.00 0.00 86 1018.5
20260502091000 53 274 3.0 4.0 0.00 0.00 0.00 82 1018.3
20260502070944 54 264 1.0 2.0 0.00 0.00 0.00 82 1018.4
20260502070919 53 265 0.0 1.0 0.00 0.00 0.00 84 1018.5
20260502065423 54 262 0.0 1.0 0.00 0.00 0.00 82 1018.5
20260502063940 54 261 0.0 1.0 0.00 0.00 0.00 83 1018.6
20260502062938 54 262 0.0 0.0 0.00 0.00 0.00 81 1018.6
20260502061938 55 262 0.0 0.0 0.00 0.00 0.00 79 1018.7
20260502060936 56 262 0.0 4.0 0.00 0.00 0.00 79 1018.6
20260502055933 56 243 2.0 6.0 0.00 0.00 0.00 80 1018.5
20260502055415 55 203 2.0 5.0 0.00 0.00 0.00 83 1018.5
20260502053932 55 264 0.0 3.0 0.00 0.00 0.00 85 1018.5
20260502053410 54 266 1.0 3.0 0.00 0.00 0.00 85 1018.3
20260502051930 54 188 0.0 0.0 0.00 0.00 0.00 86 1018.4
20260502050930 54 86 0.0 0.0 0.00 0.00 0.00 86 1018.6
20260502045930 55 86 0.0 0.0 0.00 0.00 0.00 86 1018.6
20260502044929 55 86 0.0 0.0 0.00 0.00 0.00 87 1018.6
20260502043929 55 86 0.0 0.0 0.00 0.00 0.00 86 1018.5
20260502042930 55 86 0.0 0.0 0.00 0.00 0.00 86 1018.4
20260502041929 56 86 0.0 0.0 0.00 0.00 0.00 86 1018.4
20260502040930 56 86 0.0 0.0 0.00 0.00 0.00 84 1018.3
20260502040410 56 86 0.0 0.0 0.00 0.00 0.00 84 1018.3
20260502034929 56 86 0.0 0.0 0.00 0.00 0.00 84 1018.1
20260502034357 56 86 0.0 0.0 0.00 0.00 0.00 83 1018.1
20260502032922 56 86 0.0 0.0 0.00 0.00 0.00 82 1018.2
20260502031920 57 86 0.0 0.0 0.00 0.00 0.00 79 1018.1
20260502030922 57 86 0.0 0.0 0.00 0.00 0.00 80 1018.0
20260502025917 58 86 0.0 0.0 0.00 0.00 0.00 78 1017.9
20260502025359 58 86 0.0 0.0 0.00 0.00 0.00 77 1017.8
20260502023907 59 86 0.0 0.0 0.00 0.00 0.00 77 1017.5
20260502022906 60 86 0.0 0.0 0.00 0.00 0.00 74 1017.5
20260502021907 60 86 0.0 0.0 0.00 0.00 0.00 71 1017.5
20260502020907 60 86 0.0 0.0 0.00 0.00 0.00 67 1017.3
20260502020346 60 86 0.0 0.0 0.00 0.00 0.00 68 1017.1
20260502014908 60 86 0.0 0.0 0.00 0.00 0.00 67 1016.8
20260502014346 61 86 0.0 0.0 0.00 0.00 0.00 66 1016.7
20260502012908 61 86 0.0 0.0 0.00 0.00 0.00 66 1016.5
20260502012340 62 86 0.0 0.0 0.00 0.00 0.00 66 1016.2
20260502010908 62 86 0.0 0.0 0.00 0.00 0.00 65 1015.9
20260502005908 63 86 0.0 0.0 0.00 0.00 0.00 64 1015.9
20260502004907 63 86 0.0 0.0 0.00 0.00 0.00 62 1015.8
20260502003908 63 86 0.0 0.0 0.00 0.00 0.00 62 1015.7
20260502002907 63 86 0.0 0.0 0.00 0.00 0.00 61 1015.5